Epoch 2013 Nov. 4.0 TT = JDT 2456600.5 T 2013 Nov. 21.69453 TT MPC q 0.3361267 (2000.0) P Q n 0.29903302 Peri. 186.53563 -0.94510554 -0.31479095 a 2.2147427 Node 334.57309 +0.30828474 -0.77005320 e 0.8482322 Incl. 11.77897 +0.10833298 -0.55490966 P 3.30 From 2405 observations 1993 July 22-2013 Oct. 14, mean residual 0".8. Nongravitational parameters A1 = +0.01, A2 = -0.0006.
H = 14.2 G = 0.15 [ ,-100] ( - 2013 Aug. 13) m1 = 9.8 + 5 log d + 25 log r [-100, -45] (2013 Aug. 13 - 2013 Oct. 7) m1 = 10.3 + 5 log d + 7.0 log r [ -45, 20] (2013 Oct. 7 - 2013 Dec. 11) m1 = 12.3 + 5 log d + 15.7 log r [ 20, 100] (2013 Dec. 11 - 2014 Mar. 1) H = 14.2 G = 0.15 [ 100, ] (2014 Mar. 1 - )